| time (UTC) | temp F | wind direction | speed MPH | gust MPH | rain 1hr in | rain 24hr in | rain mn in | humidity % | barometer mb |
| 20260506171601 | 60 | 326 | 1.0 | 4.0 | 0.00 | 0.00 | 0.00 | 88 | 1009.4 |
| 20260506170059 | 61 | 103 | 1.0 | 7.0 | 0.00 | 0.00 | 0.00 | 86 | 1009.8 |
| 20260506164556 | 62 | 276 | 2.0 | 10.0 | 0.00 | 0.00 | 0.00 | 84 | 1009.8 |
| 20260506163107 | 62 | 161 | 3.0 | 11.0 | 0.00 | 0.00 | 0.00 | 83 | 1009.8 |
| 20260506161600 | 63 | 163 | 3.0 | 11.0 | 0.00 | 0.00 | 0.00 | 81 | 1009.8 |
| 20260506160107 | 63 | 158 | 4.0 | 14.0 | 0.00 | 0.00 | 0.00 | 81 | 1010.0 |
| 20260506154558 | 63 | 188 | 4.0 | 12.0 | 0.00 | 0.00 | 0.00 | 82 | 1010.1 |
| 20260506153100 | 63 | 64 | 4.0 | 8.0 | 0.00 | 0.00 | 0.00 | 81 | 1010.2 |
| 20260506151559 | 63 | 283 | 2.0 | 8.0 | 0.00 | 0.00 | 0.00 | 81 | 1009.9 |
| 20260506144601 | 65 | 160 | 2.0 | 10.0 | 0.00 | 0.00 | 0.00 | 80 | 1010.0 |
| 20260506143059 | 65 | 256 | 6.0 | 14.0 | 0.00 | 0.00 | 0.00 | 78 | 1010.2 |
| 20260506141609 | 65 | 11 | 4.0 | 12.0 | 0.00 | 0.00 | 0.00 | 78 | 1010.0 |
| 20260506140101 | 65 | 140 | 2.0 | 10.0 | 0.00 | 0.00 | 0.00 | 80 | 1010.4 |
| 20260506134619 | 65 | 163 | 3.0 | 12.0 | 0.00 | 0.00 | 0.00 | 80 | 1010.3 |
| 20260506133056 | 64 | 157 | 3.0 | 10.0 | 0.00 | 0.00 | 0.00 | 81 | 1010.2 |
| 20260506131608 | 63 | 190 | 3.0 | 10.0 | 0.00 | 0.00 | 0.00 | 82 | 1010.1 |
| 20260506130055 | 62 | 161 | 4.0 | 13.0 | 0.00 | 0.00 | 0.00 | 83 | 1010.1 |
| 20260506124556 | 62 | 130 | 3.0 | 10.0 | 0.00 | 0.00 | 0.00 | 84 | 1010.4 |
| 20260506123058 | 62 | 175 | 2.0 | 11.0 | 0.00 | 0.00 | 0.00 | 85 | 1010.8 |
| 20260506121605 | 61 | 221 | 3.0 | 9.0 | 0.00 | 0.00 | 0.00 | 86 | 1010.7 |
| 20260506114556 | 59 | 142 | 2.0 | 9.0 | 0.00 | 0.00 | 0.00 | 90 | 1010.6 |
| 20260506113058 | 58 | 242 | 1.0 | 7.0 | 0.00 | 0.00 | 0.00 | 91 | 1010.7 |
| 20260506111612 | 58 | 166 | 2.0 | 7.0 | 0.00 | 0.00 | 0.00 | 92 | 1010.8 |
| 20260506110058 | 57 | 146 | 2.0 | 6.0 | 0.00 | 0.00 | 0.00 | 93 | 1011.0 |
| 20260506104559 | 56 | 146 | 1.0 | 7.0 | 0.00 | 0.00 | 0.00 | 93 | 1010.6 |
| 20260506103101 | 55 | 273 | 0.0 | 8.0 | 0.00 | 0.00 | 0.00 | 93 | 1010.7 |
| 20260506101557 | 55 | 210 | 1.0 | 5.0 | 0.00 | 0.00 | 0.00 | 93 | 1010.7 |
| 20260506100101 | 55 | 115 | 0.0 | 6.0 | 0.00 | 0.00 | 0.00 | 93 | 1010.6 |
| 20260506094555 | 56 | 114 | 1.0 | 7.0 | 0.00 | 0.00 | 0.00 | 92 | 1010.4 |
| 20260506093059 | 56 | 169 | 1.0 | 7.0 | 0.00 | 0.00 | 0.00 | 92 | 1010.5 |
| 20260506091555 | 56 | 140 | 2.0 | 6.0 | 0.00 | 0.00 | 0.00 | 92 | 1010.6 |
| 20260506090056 | 56 | 30 | 1.0 | 7.0 | 0.00 | 0.00 | 0.00 | 91 | 1010.7 |
| 20260506084605 | 56 | 0 | 1.0 | 4.0 | 0.00 | 0.00 | 0.00 | 91 | 1010.7 |
| 20260506083114 | 56 | 146 | 1.0 | 5.0 | 0.00 | 0.00 | 0.00 | 90 | 1010.8 |
| 20260506081558 | 57 | 0 | 1.0 | 7.0 | 0.00 | 0.00 | 0.00 | 90 | 1010.8 |
| 20260506073056 | 57 | 66 | 1.0 | 6.0 | 0.00 | 0.00 | 0.00 | 89 | 1010.9 |
| 20260506071559 | 57 | 0 | 1.0 | 7.0 | 0.00 | 0.00 | 0.00 | 88 | 1011.1 |
| 20260506070126 | 57 | 57 | 1.0 | 5.0 | 0.00 | 0.00 | 0.00 | 87 | 1011.0 |
| 20260506061556 | 58 | 173 | 2.0 | 10.0 | 0.00 | 0.00 | 0.00 | 86 | 1010.8 |
| 20260506050109 | 59 | 250 | 2.0 | 8.0 | 0.00 | 0.00 | 0.00 | 83 | 1011.2 |
| 20260506044558 | 60 | 157 | 3.0 | 9.0 | 0.00 | 0.00 | 0.00 | 83 | 1011.4 |
| 20260506043058 | 60 | 272 | 1.0 | 9.0 | 0.00 | 0.00 | 0.00 | 82 | 1011.3 |
| 20260506041621 | 61 | 122 | 3.0 | 11.0 | 0.00 | 0.00 | 0.00 | 82 | 1011.4 |
| 20260506040101 | 60 | 49 | 2.0 | 8.0 | 0.00 | 0.00 | 0.00 | 82 | 1011.4 |
| 20260506034601 | 61 | 236 | 2.0 | 6.0 | 0.00 | 0.00 | 0.00 | 81 | 1011.4 |
| 20260506033059 | 61 | 351 | 3.0 | 13.0 | 0.00 | 0.00 | 0.00 | 80 | 1011.5 |
| 20260506031601 | 61 | 306 | 2.0 | 13.0 | 0.00 | 0.00 | 0.00 | 78 | 1011.4 |
| 20260506030059 | 61 | 137 | 1.0 | 10.0 | 0.00 | 0.00 | 0.00 | 76 | 1011.4 |
| 20260506024601 | 62 | 227 | 3.0 | 13.0 | 0.00 | 0.00 | 0.00 | 75 | 1011.4 |
| 20260506023057 | 62 | 340 | 2.0 | 10.0 | 0.00 | 0.00 | 0.00 | 75 | 1011.3 |
| 20260506021558 | 62 | 199 | 3.0 | 11.0 | 0.00 | 0.00 | 0.00 | 74 | 1011.3 |
| 20260506020111 | 62 | 302 | 3.0 | 13.0 | 0.00 | 0.00 | 0.00 | 74 | 1011.2 |
| 20260506014612 | 61 | 279 | 3.0 | 12.0 | 0.00 | 0.00 | 0.00 | 76 | 1011.1 |
| 20260506013057 | 61 | 48 | 1.0 | 8.0 | 0.00 | 0.00 | 0.00 | 75 | 1010.9 |
| 20260506011619 | 62 | 132 | 1.0 | 8.0 | 0.00 | 0.00 | 0.00 | 74 | 1010.8 |
| 20260506010056 | 62 | 271 | 3.0 | 11.0 | 0.00 | 0.00 | 0.00 | 74 | 1010.6 |
| 20260506004605 | 62 | 214 | 3.0 | 11.0 | 0.00 | 0.00 | 0.00 | 73 | 1010.5 |
| 20260506003058 | 62 | 233 | 2.0 | 12.0 | 0.00 | 0.00 | 0.00 | 72 | 1010.3 |
| 20260506001602 | 63 | 0 | 3.0 | 10.0 | 0.00 | 0.00 | 0.00 | 71 | 1009.9 |
| 20260506000120 | 63 | 275 | 2.0 | 12.0 | 0.00 | 0.00 | 0.00 | 71 | 1009.8 |
| 20260505234557 | 64 | 199 | 1.0 | 10.0 | 0.00 | 0.00 | 0.00 | 70 | 1009.6 |
| 20260505233100 | 64 | 228 | 2.0 | 10.0 | 0.00 | 0.00 | 0.00 | 68 | 1009.4 |
| 20260505231614 | 66 | 117 | 1.0 | 12.0 | 0.00 | 0.00 | 0.00 | 68 | 1009.2 |
| 20260505230107 | 67 | 301 | 3.0 | 11.0 | 0.00 | 0.00 | 0.00 | 66 | 1008.8 |
| 20260505224600 | 67 | 319 | 2.0 | 13.0 | 0.00 | 0.00 | 0.00 | 65 | 1009.0 |
| 20260505223103 | 68 | 136 | 2.0 | 9.0 | 0.00 | 0.00 | 0.00 | 64 | 1009.1 |
| 20260505221604 | 69 | 309 | 2.0 | 12.0 | 0.00 | 0.00 | 0.00 | 65 | 1009.1 |
| 20260505220058 | 69 | 97 | 3.0 | 11.0 | 0.00 | 0.00 | 0.00 | 65 | 1008.9 |
| 20260505214557 | 70 | 223 | 3.0 | 13.0 | 0.00 | 0.00 | 0.00 | 64 | 1008.8 |
| 20260505213059 | 70 | 314 | 4.0 | 13.0 | 0.00 | 0.00 | 0.00 | 65 | 1008.8 |
| 20260505211558 | 69 | 131 | 4.0 | 12.0 | 0.00 | 0.00 | 0.00 | 63 | 1008.8 |
| 20260505210057 | 71 | 118 | 4.0 | 14.0 | 0.00 | 0.00 | 0.00 | 62 | 1008.7 |
| 20260505204602 | 71 | 304 | 1.0 | 16.0 | 0.00 | 0.00 | 0.00 | 64 | 1008.6 |
| 20260505203102 | 72 | 360 | 3.0 | 10.0 | 0.00 | 0.00 | 0.00 | 63 | 1008.6 |
| 20260505201557 | 72 | 126 | 2.0 | 12.0 | 0.00 | 0.00 | 0.00 | 62 | 1008.7 |
| 20260505200056 | 72 | 307 | 3.0 | 10.0 | 0.00 | 0.00 | 0.00 | 61 | 1009.0 |
| 20260505194618 | 73 | 164 | 4.0 | 11.0 | 0.00 | 0.00 | 0.00 | 61 | 1008.9 |
| 20260505193106 | 72 | 200 | 3.0 | 13.0 | 0.00 | 0.00 | 0.00 | 61 | 1009.1 |
| 20260505191609 | 73 | 110 | 5.0 | 14.0 | 0.00 | 0.00 | 0.00 | 60 | 1009.2 |
| 20260505190059 | 73 | 279 | 4.0 | 11.0 | 0.00 | 0.00 | 0.00 | 61 | 1009.4 |
| 20260505184602 | 74 | 276 | 3.0 | 13.0 | 0.00 | 0.00 | 0.00 | 62 | 1009.4 |
| 20260505183104 | 73 | 346 | 4.0 | 12.0 | 0.00 | 0.00 | 0.00 | 61 | 1009.3 |
| 20260505181558 | 74 | 324 | 3.0 | 12.0 | 0.00 | 0.00 | 0.00 | 60 | 1009.5 |
| 20260505180105 | 74 | 304 | 3.0 | 12.0 | 0.00 | 0.00 | 0.00 | 61 | 1009.3 |
| 20260505174559 | 73 | 175 | 3.0 | 11.0 | 0.00 | 0.00 | 0.00 | 60 | 1009.5 |
| 20260505173116 | 74 | 233 | 4.0 | 11.0 | 0.00 | 0.00 | 0.00 | 60 | 1009.8 |